Date String (YYYY-MM-DD hh:mm:ss) UTC,Instrument flags,Ambient pressure (hPa),Sample flow (lpm),Bypass flow (lpm),Sample temperature (°C),Ambient temperature (°C),ASC tube jacket temperature (°C),LED temperature (°C),Box temperature (°C),Sample RH (%),Span deviation,Mass concentration (μg/m³),Mass concentration (μg/m³),Mass concentration (μg/m³)
DateTimeUTC,F1_M11,P_M11,Q1_M11,Q2_M11,T1_M11,T2_M11,T3_M11,T4_M11,T5_M11,U1_M11,ZSPAN_M11,X0_M11,X2_M11,X1_M11
2021-11-03 19:00:00,,0832.1,5.01,0.00,27.3,26.5,00.0,36.3,29.1,19.1,0000.0,0006.86,0004.35,0004.07
2021-11-03 19:01:00,,0832.1,5.00,0.00,27.3,26.5,00.0,36.2,29.1,19.0,-000.7,0006.84,0004.32,0004.05
2021-11-03 19:02:00,,0832.1,5.00,0.00,27.3,26.6,00.0,36.2,29.1,19.4,-001.3,0006.79,0004.30,0004.04
2021-11-03 19:03:00,,0832.1,4.99,0.00,27.3,26.6,00.0,36.3,29.2,19.4,-001.2,0006.72,0004.29,0004.03
2021-11-03 19:04:00,,0832.1,5.01,0.00,27.3,26.6,00.0,36.3,29.2,19.3,-000.9,0006.55,0004.26,0004.03
2021-11-03 19:05:00,,0832.1,5.01,0.00,27.3,26.6,00.0,36.3,29.2,18.7,0000.0,0006.38,0004.22,0004.01
2021-11-03 19:06:00,,0832.1,4.99,0.00,27.3,26.6,00.0,36.3,29.2,18.9,0000.0,0006.24,0004.17,0003.96
2021-11-03 19:07:00,,0832.1,5.01,0.00,27.3,26.6,00.0,36.3,29.2,18.6,0000.0,0006.23,0004.14,0003.93
2021-11-03 19:08:00,,0832.0,5.00,0.00,27.3,26.6,00.0,36.3,29.2,18.8,-000.4,0005.98,0004.11,0003.92
2021-11-03 19:09:00,,0832.0,5.01,0.00,27.3,26.6,00.0,36.3,29.2,18.5,0000.0,0006.06,0004.07,0003.88
2021-11-03 19:10:00,,0831.9,5.00,0.00,27.3,26.6,00.0,36.3,29.2,18.2,0000.0,0005.87,0003.99,0003.81
2021-11-03 19:11:00,,0831.9,4.99,0.00,27.4,26.6,00.0,36.3,29.2,18.1,0000.0,0005.76,0003.94,0003.75
2021-11-03 19:12:00,,0832.0,4.99,0.00,27.4,26.6,00.0,36.3,29.2,18.0,0000.0,0005.48,0003.87,0003.70
2021-11-03 19:13:00,,0832.0,5.00,0.00,27.4,26.6,00.0,36.3,29.2,17.9,0000.0,0005.26,0003.81,0003.65
2021-11-03 19:14:00,,0831.9,5.00,0.00,27.4,26.6,00.0,36.3,29.2,18.4,0000.0,0005.24,0003.77,0003.62
2021-11-03 19:15:00,,0831.9,5.00,0.00,27.4,26.6,00.0,36.3,29.2,18.3,0000.0,0005.23,0003.75,0003.59
2021-11-03 19:16:00,,0831.8,4.99,0.00,27.4,26.6,00.0,36.3,29.2,18.4,0000.0,0005.19,0003.70,0003.55
2021-11-03 19:17:00,,0831.8,5.00,0.00,27.4,26.6,00.0,36.3,29.2,18.2,0000.0,0005.30,0003.68,0003.52
2021-11-03 19:18:00,,0831.8,5.01,0.00,27.4,26.6,00.0,36.4,29.2,18.0,0000.0,0006.51,0003.64,0003.49
2021-11-03 19:19:00,,0831.7,5.01,0.00,27.4,26.6,00.0,36.3,29.2,17.4,0000.0,0006.42,0003.59,0003.44
2021-11-03 19:20:00,,0831.7,4.99,0.00,27.3,26.6,00.0,36.3,29.2,17.6,0000.0,0006.11,0003.55,0003.40
2021-11-03 19:21:00,,0831.7,4.99,0.00,27.3,26.6,00.0,36.4,29.2,17.2,0000.0,0006.03,0003.53,0003.39
2021-11-03 19:22:00,,0831.7,5.00,0.00,27.3,26.6,00.0,36.4,29.2,17.3,0000.0,0005.96,0003.51,0003.36
2021-11-03 19:23:00,,0831.7,5.00,0.00,27.3,26.6,00.0,36.4,29.2,17.3,0000.0,0005.85,0003.48,0003.33
2021-11-03 19:24:00,,0831.7,5.00,0.00,27.3,26.6,00.0,36.4,29.1,17.3,0000.0,0005.97,0003.48,0003.33
2021-11-03 19:25:00,,0831.7,5.02,0.00,27.3,26.6,00.0,36.3,29.1,17.4,0000.0,0006.41,0003.48,0003.31
2021-11-03 19:26:00,,0831.7,5.01,0.00,27.3,26.6,00.0,36.4,29.2,17.6,0000.0,0006.56,0003.46,0003.29
2021-11-03 19:27:00,,0831.7,5.00,0.00,27.4,26.6,00.0,36.4,29.2,17.9,0000.0,0006.53,0003.45,0003.29
2021-11-03 19:28:00,,0831.7,5.01,0.00,27.4,26.6,00.0,36.4,29.2,17.5,0000.0,0006.54,0003.46,0003.29
2021-11-03 19:29:00,,0831.6,5.00,0.00,27.4,26.6,00.0,36.4,29.2,17.1,0000.0,0005.33,0003.49,0003.32
2021-11-03 19:30:00,,0831.6,4.99,0.00,27.4,26.7,00.0,36.4,29.2,17.3,0000.0,0005.31,0003.51,0003.33
2021-11-03 19:31:00,,0831.6,4.99,0.00,27.4,26.7,00.0,36.4,29.2,17.2,0000.0,0005.28,0003.51,0003.34
2021-11-03 19:32:00,,0831.6,5.00,0.00,27.4,26.7,00.0,36.4,29.2,16.9,0000.0,0005.32,0003.51,0003.35
2021-11-03 19:33:00,,0831.6,5.01,0.00,27.4,26.7,00.0,36.4,29.3,17.1,0000.0,0005.35,0003.52,0003.36
2021-11-03 19:34:00,,0831.5,4.99,0.00,27.4,26.7,00.0,36.4,29.3,17.0,0000.0,0005.39,0003.53,0003.37
2021-11-03 19:35:00,,0831.5,5.01,0.00,27.4,26.7,00.0,36.4,29.3,16.9,0000.0,0005.30,0003.53,0003.36
2021-11-03 19:36:00,,0831.5,5.01,0.00,27.4,26.7,00.0,36.4,29.3,17.0,0000.0,0004.88,0003.50,0003.35
2021-11-03 19:37:00,,0831.5,5.00,0.00,27.5,26.8,00.0,36.4,29.3,17.0,0000.0,0004.54,0003.49,0003.34
2021-11-03 19:38:00,,0831.5,5.00,0.00,27.5,26.8,00.0,36.4,29.3,16.9,0000.0,0004.71,0003.51,0003.34
2021-11-03 19:39:00,,0831.5,4.99,0.00,27.5,26.8,00.0,36.4,29.3,16.8,0000.0,0004.67,0003.50,0003.34
2021-11-03 19:40:00,,0831.5,5.01,0.00,27.5,26.8,00.0,36.4,29.3,16.9,0000.0,0004.55,0003.47,0003.32
2021-11-03 19:41:00,,0831.4,5.00,0.00,27.5,26.7,00.0,36.4,29.3,16.7,0000.0,0004.43,0003.45,0003.30
2021-11-03 19:42:00,,0831.5,5.00,0.00,27.5,26.7,00.0,36.4,29.3,16.7,0000.0,0004.48,0003.46,0003.29
2021-11-03 19:43:00,,0831.5,4.99,0.00,27.5,26.7,00.0,36.5,29.3,16.7,0000.0,0004.42,0003.44,0003.29
2021-11-03 19:44:00,,0831.5,5.01,0.00,27.5,26.7,00.0,36.5,29.3,16.9,0000.0,0004.42,0003.44,0003.28
2021-11-03 19:45:00,,0831.4,4.99,0.00,27.5,26.7,00.0,36.5,29.3,17.0,0000.0,0005.40,0003.45,0003.29
2021-11-03 19:46:00,,0831.4,5.02,0.00,27.5,26.7,00.0,36.5,29.3,16.8,0000.0,0005.63,0003.46,0003.30
2021-11-03 19:47:00,,0831.4,4.99,0.00,27.5,26.8,00.0,36.5,29.3,16.7,0000.0,0005.61,0003.45,0003.30
2021-11-03 19:48:00,,0831.4,4.99,0.00,27.5,26.8,00.0,36.5,29.3,16.7,0000.0,0005.54,0003.44,0003.29
2021-11-03 19:49:00,,0831.4,5.01,0.00,27.5,26.8,00.0,36.5,29.3,16.7,0000.0,0005.36,0003.43,0003.30
2021-11-03 19:50:00,,0831.3,5.00,0.00,27.5,26.8,00.0,36.5,29.4,16.7,0000.0,0005.35,0003.43,0003.31
2021-11-03 19:51:00,,0831.3,5.01,0.00,27.5,26.8,00.0,36.5,29.4,16.8,0000.0,0005.43,0003.43,0003.30
2021-11-03 19:52:00,,0831.3,4.99,0.00,27.5,26.8,00.0,36.5,29.4,16.9,0000.0,0005.53,0003.45,0003.31
2021-11-03 19:53:00,,0831.3,5.01,0.00,27.5,26.8,00.0,36.5,29.4,17.0,0000.0,0005.46,0003.43,0003.30
2021-11-03 19:54:00,,0831.3,5.01,0.00,27.6,26.9,00.0,36.5,29.4,16.7,0000.0,0005.45,0003.42,0003.30
2021-11-03 19:55:00,,0831.2,5.01,0.00,27.6,26.9,00.0,36.5,29.4,16.8,0000.0,0005.49,0003.42,0003.30
2021-11-03 19:56:00,,0831.2,4.99,0.00,27.6,26.9,00.0,36.5,29.4,16.9,0000.0,0004.71,0003.41,0003.28
2021-11-03 19:57:00,,0831.2,5.00,0.00,27.6,26.9,00.0,36.5,29.4,16.9,0000.0,0004.60,0003.38,0003.26
2021-11-03 19:58:00,,0831.2,5.00,0.00,27.6,26.9,00.0,36.5,29.4,17.0,0000.0,0004.62,0003.36,0003.24
2021-11-03 19:59:00,,0831.2,5.01,0.00,27.6,26.9,00.0,36.6,29.5,17.0,0000.0,0004.66,0003.36,0003.22
